Regional Weather Roundup
Issued by NWS

Home | Current Version | Previous Version | Text Only | Print | Product List | Glossary Off
Versions: 1 2 3 4 5 6 7 8 9 10 11 12 13 14 15 16 17 18 19 20 21 22 23 24 25 26 27

000
ASUS45 KBOU 240507
RWRCO

WEATHER ROUNDUP FOR COLORADO
NATIONAL WEATHER SERVICE DENVER/BOULDER CO
1100 PM MDT SAT SEP 23 2017

NOTE: "FAIR" INDICATES FEW OR NO CLOUDS BELOW 12000 FEET WITH NO
SIGNIFICANT WEATHER AND/OR OBSTRUCTIONS TO VISIBILITY.

COZ001>005-013-030-031-240600-
...NORTHWEST COLORADO...

CITY           SKY/WX    TMP DP  RH WIND       PRES   REMARKS
CRAIG          FAIR      42  37  82 CALM      29.89F
HAYDEN         FAIR      43  38  82 SE9       29.92F
MEEKER         FAIR      38  36  92 NE3       29.89F
RABBIT EARS PA FAIR      32  32 100 SW8       30.05F WCI  25
STEAMBOAT SPGS FAIR      40  38  93 CALM      29.92F
WALDEN         FAIR      34  32  93 CALM      30.00S
$$

COZ006>008-011-240600-
...WEST CENTRAL VALLEYS...

CITY           SKY/WX    TMP DP  RH WIND       PRES   REMARKS
GRAND JUNCTION FAIR      48  45  89 SE8       29.81F
MONTROSE       FAIR      45  42  89 E3        29.85F
EAGLE          FAIR      40  39  97 E3        29.96S
RIFLE          FAIR      45  42  89 CALM      29.86F
DELTA          NOT AVBL
NUCLA          FAIR      46  41  81 N5        29.86S
$$

COZ017>023-064>068-240600-
...SOUTHWEST COLORADO...

CITY           SKY/WX    TMP DP  RH WIND       PRES   REMARKS
DURANGO        FAIR      43  43 100 CALM      29.91F
CORTEZ         FAIR      53  44  71 SW8       29.86R
PAGOSA SPRINGS FAIR      40  39  99 CALM      29.99R
TELLURIDE      FAIR      40  33  75 E5        29.99F
WOLF CREEK PAS FOG       32  32 100 S15G21    30.16F VSB 1/4 WCI  22
$$

COZ009-010-012-014-032>034-037-058>063-240600-
...CENTRAL COLORADO...

CITY           SKY/WX    TMP DP  RH WIND       PRES   REMARKS
ASPEN          FAIR      36  34  92 S6        29.94S
BUENA VISTA    FAIR      41  38  89 W5        29.97F
COPPER MTN     FAIR      37  25  60 MISG      30.11F
BERTHOUD PASS  HAZE      27  19  74 S5        30.13F VSB 1/2 WCI  21
COTTONWOOD PAS   N/A     43  41  93 CALM      30.02F
GUNNISON       FAIR      39  35  86 NE5       29.96F
KREMMLING      FAIR      37  34  87 CALM      29.99R
LEADVILLE      FAIR      31  29  92 N3        30.02S
MONARCH PASS   FAIR      32  28  86 SW25      30.20F WCI  19
SALIDA         FAIR      48  42  80 SE3       30.02F
SUNLIGHT       FAIR      30  30 100 SE6       30.07F WCI  24
WILKERSON PASS MOCLDY    34  32  93 SW7       30.12F FOG     WCI  28
$$

COZ069>075-240600-
...SAN LUIS VALLEY/SANGRE DE CRISTO MOUNTAINS...

CITY           SKY/WX    TMP DP  RH WIND       PRES   REMARKS
ALAMOSA        FAIR      44  43  96 SE7       29.96S
DEL NORTE      FAIR      40  37  89 W8        29.99R
LA VETA PASS   CLOUDY    39  37  93 S9G22     30.19R
SAGUACHE       FAIR      41  37  87 CALM      29.98S
$$

COZ035-036-038>040-240600-
...NORTHERN COLORADO FRONT RANGE...

CITY           SKY/WX    TMP DP  RH WIND       PRES   REMARKS
DENVER INTL AP CLOUDY    45  43  93 NE7       29.99S
DMNS CITY PARK   N/A     45  44  98 SE9G16    29.98F
AURORA         CLOUDY    44  44 100 N5        29.99F
FRONT RANGE AP CLOUDY    45  45 100 NE8G18    29.99F
ERIE MUNI ARPT CLOUDY    46  44  91 E5        30.05R
BOULDER MUN AP CLOUDY    45  45 100 E3        29.99R
CENTENNIAL     LGT RAIN  44  43  96 N7        29.99F FOG
BROOMFIELD     CLOUDY    45  43  93 E6        30.00R
FORT COLLINS   LGT RAIN  46  44  93 CALM      30.00F
LONGMONT       CLOUDY    48  46  90 E3        30.00S
$$

COZ041-046-047-076>085-087-088-240600-
...PIKES PEAK/PALMER DIVIDE AND SOUTHERN FOOTHILLS...

CITY           SKY/WX    TMP DP  RH WIND       PRES   REMARKS
COLO. SPRINGS  CLOUDY    46  42  86 N15       29.97S
A. F. ACADEMY  CLOUDY    43  42  93 N17       29.98R
SCHRIEVER AFB  MOCLDY    44  41  89 MISG      29.97R
CHEYENNE MTN   MOCLDY    42  40  93 N20G36    29.91R
ELLICOTT       CLOUDY   N/A N/A N/A N17G25    29.95R
FALCON         CLOUDY    42  40  94 N16G24    29.99R
FORT CARSON    FAIR      47  42  84 N20G26    29.93R
LIMON            N/A    N/A N/A N/A MISG      29.93F
MONUMENT HILL  CLOUDY    37  37 100 N8        30.02S FOG
CANON CITY     CLOUDY    54  48  82 SE14      29.91R
WALSENBURG     CLOUDY    50  48  93 N16G22    29.96R
TRINIDAD       RAIN      54  32  43 NE5       29.93R
$$

COZ042>045-048>051-090-091-240600-
...NORTHEAST COLORADO...

CITY           SKY/WX    TMP DP  RH WIND       PRES   REMARKS
GREELEY ARPT   LGT RAIN  46  44  93 CALM      30.00F
AKRON          LGT RAIN  44  43  96 N13       29.99R
BURLINGTON     CLOUDY    58  58 100 E6        29.89S
WRAY           RAIN     N/A N/A N/A NW14      29.92R
YUMA           RAIN      45  45 100 N14G22    29.94F
STERLING       RAIN      45  45 100 N5        29.97R
HOLYOKE        DRIZZLE   52  48  87 N15G21    29.94R
FORT MORGAN    RAIN      45  43  93 NE9       29.96F
$$

COZ086-089-092>099-240600-
...SOUTHEAST COLORADO...

CITY           SKY/WX    TMP DP  RH WIND       PRES   REMARKS
PUEBLO         LGT RAIN  51  46  83 N21G29    29.90R
LA JUNTA       LGT RAIN  59  57  93 NW5       29.89R
LAMAR          CLOUDY    64  59  83 S6        29.87R
SPRINGFIELD      N/A     60  60 100 S5        29.92R
$$




USA.gov is the U.S. government's official web portal to all federal, state and local government web resources and services.